Time,TemperatureF,DewpointF,PressureIn,WindDirection,WindDirectionDegrees,WindSpeedMPH,WindSpeedGustMPH,Humidity,HourlyPrecipIn,Conditions,Clouds,dailyrainin,SoftwareType,DateUTC
2013-03-07 00:00:00,46.2,20.7,30.00,South,182,0.0,0.0,36,0.00,,,0.00,Wunderground v.1.15,2013-03-07 07:00:00,
2013-03-07 00:05:00,46.0,20.5,29.99,South,182,0.0,0.0,36,0.00,,,0.00,Wunderground v.1.15,2013-03-07 07:05:00,
2013-03-07 00:15:00,45.6,20.8,30.00,South,182,0.0,0.0,37,0.00,,,0.00,Wunderground v.1.15,2013-03-07 07:15:00,
2013-03-07 00:20:00,45.2,20.4,30.00,South,182,0.0,0.0,37,0.00,,,0.00,Wunderground v.1.15,2013-03-07 07:20:00,
2013-03-07 00:25:00,44.9,20.8,30.00,South,182,0.0,0.0,38,0.00,,,0.00,Wunderground v.1.15,2013-03-07 07:25:00,
2013-03-07 00:30:00,44.7,20.6,30.00,South,182,0.0,0.0,38,0.00,,,0.00,Wunderground v.1.15,2013-03-07 07:30:00,
2013-03-07 00:35:00,44.5,20.4,30.00,South,182,0.0,0.0,38,0.00,,,0.00,Wunderground v.1.15,2013-03-07 07:35:00,
2013-03-07 00:40:00,44.2,20.2,30.00,South,182,0.0,0.0,38,0.00,,,0.00,Wunderground v.1.15,2013-03-07 07:40:00,
2013-03-07 00:45:00,43.8,20.4,30.00,South,182,0.0,0.0,39,0.00,,,0.00,Wunderground v.1.15,2013-03-07 07:45:00,
2013-03-07 00:50:00,43.5,20.2,30.00,South,182,0.0,0.0,39,0.00,,,0.00,Wunderground v.1.15,2013-03-07 07:50:00,
2013-03-07 00:55:00,43.1,19.8,30.00,South,182,0.0,0.0,39,0.00,,,0.00,Wunderground v.1.15,2013-03-07 07:55:00,
2013-03-07 01:00:00,42.7,20.0,30.00,South,182,0.0,0.0,40,0.00,,,0.00,Wunderground v.1.15,2013-03-07 08:00:00,
2013-03-07 01:05:00,42.5,19.8,30.00,South,182,0.0,0.0,40,0.00,,,0.00,Wunderground v.1.15,2013-03-07 08:05:00,
2013-03-07 01:10:00,42.6,19.9,30.00,South,182,0.0,0.0,40,0.00,,,0.00,Wunderground v.1.15,2013-03-07 08:10:00,
2013-03-07 01:15:00,42.6,19.9,30.00,South,182,0.0,0.0,40,0.00,,,0.00,Wunderground v.1.15,2013-03-07 08:15:00,
2013-03-07 01:20:00,42.3,19.7,30.00,South,182,0.0,0.0,40,0.00,,,0.00,Wunderground v.1.15,2013-03-07 08:20:00,
2013-03-07 01:25:00,42.0,19.4,30.00,South,182,0.0,0.0,40,0.00,,,0.00,Wunderground v.1.15,2013-03-07 08:25:00,
2013-03-07 01:30:00,41.6,19.0,30.00,South,182,0.0,0.0,40,0.00,,,0.00,Wunderground v.1.15,2013-03-07 08:30:00,
2013-03-07 01:35:00,41.1,18.6,30.00,South,182,0.0,0.0,40,0.00,,,0.00,Wunderground v.1.15,2013-03-07 08:35:00,
2013-03-07 01:40:00,40.6,18.7,30.00,South,182,0.0,0.0,41,0.00,,,0.00,Wunderground v.1.15,2013-03-07 08:40:00,
2013-03-07 01:45:00,40.4,18.5,30.00,South,182,0.0,0.0,41,0.00,,,0.00,Wunderground v.1.15,2013-03-07 08:45:00,
2013-03-07 01:50:00,40.2,18.9,30.00,South,182,0.0,0.0,42,0.00,,,0.00,Wunderground v.1.15,2013-03-07 08:50:00,
2013-03-07 01:55:00,40.1,18.8,30.00,South,182,0.0,0.0,42,0.00,,,0.00,Wunderground v.1.15,2013-03-07 08:55:00,
2013-03-07 02:00:00,40.1,18.8,30.00,South,182,0.0,0.0,42,0.00,,,0.00,Wunderground v.1.15,2013-03-07 09:00:00,
2013-03-07 02:05:00,40.1,18.3,30.00,South,182,0.0,0.0,41,0.00,,,0.00,Wunderground v.1.15,2013-03-07 09:05:00,
2013-03-07 02:10:00,40.0,18.2,30.00,South,182,0.0,0.0,41,0.00,,,0.00,Wunderground v.1.15,2013-03-07 09:10:00,
2013-03-07 02:15:00,39.8,18.5,30.00,South,182,0.0,0.0,42,0.00,,,0.00,Wunderground v.1.15,2013-03-07 09:15:00,
2013-03-07 02:20:00,39.6,18.4,30.00,South,182,0.0,0.0,42,0.00,,,0.00,Wunderground v.1.15,2013-03-07 09:20:00,
2013-03-07 02:25:00,39.2,18.0,29.99,South,182,0.0,0.0,42,0.00,,,0.00,Wunderground v.1.15,2013-03-07 09:25:00,
2013-03-07 02:30:00,38.9,17.7,29.99,South,182,0.0,0.0,42,0.00,,,0.00,Wunderground v.1.15,2013-03-07 09:30:00,
2013-03-07 02:35:00,38.7,18.1,29.99,South,182,0.0,0.0,43,0.00,,,0.00,Wunderground v.1.15,2013-03-07 09:35:00,
2013-03-07 02:40:00,38.5,17.9,29.99,South,182,0.0,0.0,43,0.00,,,0.00,Wunderground v.1.15,2013-03-07 09:40:00,
2013-03-07 02:45:00,38.6,18.0,29.99,South,182,0.0,0.0,43,0.00,,,0.00,Wunderground v.1.15,2013-03-07 09:45:00,
2013-03-07 02:50:00,38.5,17.9,29.99,South,182,0.0,0.0,43,0.00,,,0.00,Wunderground v.1.15,2013-03-07 09:50:00,
2013-03-07 02:55:00,38.4,17.8,29.99,South,182,0.0,0.0,43,0.00,,,0.00,Wunderground v.1.15,2013-03-07 09:55:00,
2013-03-07 03:00:00,38.3,18.3,29.99,South,182,0.0,0.0,44,0.00,,,0.00,Wunderground v.1.15,2013-03-07 10:00:00,
2013-03-07 03:10:00,39.0,18.4,29.99,South,182,0.0,0.0,43,0.00,,,0.00,Wunderground v.1.15,2013-03-07 10:10:00,
2013-03-07 03:15:00,39.0,18.4,30.00,South,182,0.0,0.0,43,0.00,,,0.00,Wunderground v.1.15,2013-03-07 10:15:00,
2013-03-07 03:20:00,38.9,18.3,30.00,South,182,0.0,0.0,43,0.00,,,0.00,Wunderground v.1.15,2013-03-07 10:20:00,
2013-03-07 03:25:00,38.9,18.3,30.00,South,182,0.0,0.0,43,0.00,,,0.00,Wunderground v.1.15,2013-03-07 10:25:00,
2013-03-07 03:30:00,38.8,18.2,30.00,South,182,0.0,0.0,43,0.00,,,0.00,Wunderground v.1.15,2013-03-07 10:30:00,
2013-03-07 03:35:00,38.4,17.8,30.00,South,182,0.0,0.0,43,0.00,,,0.00,Wunderground v.1.15,2013-03-07 10:35:00,
2013-03-07 03:40:00,38.1,17.5,30.00,South,182,0.0,0.0,43,0.00,,,0.00,Wunderground v.1.15,2013-03-07 10:40:00,
2013-03-07 03:45:00,37.8,17.8,30.00,South,182,0.0,0.0,44,0.00,,,0.00,Wunderground v.1.15,2013-03-07 10:45:00,
2013-03-07 03:55:00,37.4,17.4,30.00,South,182,0.0,0.0,44,0.00,,,0.00,Wunderground v.1.15,2013-03-07 10:55:00,
2013-03-07 04:00:00,37.1,17.7,30.00,South,182,0.0,0.0,45,0.00,,,0.00,Wunderground v.1.15,2013-03-07 11:00:00,
2013-03-07 04:05:00,36.8,17.4,30.00,South,182,0.0,0.0,45,0.00,,,0.00,Wunderground v.1.15,2013-03-07 11:05:00,
2013-03-07 04:15:00,36.4,17.6,30.01,South,182,0.0,0.0,46,0.00,,,0.00,Wunderground v.1.15,2013-03-07 11:15:00,
2013-03-07 04:20:00,36.1,17.3,30.01,South,182,0.0,0.0,46,0.00,,,0.00,Wunderground v.1.15,2013-03-07 11:20:00,
2013-03-07 04:25:00,36.0,17.2,30.01,South,182,0.0,0.0,46,0.00,,,0.00,Wunderground v.1.15,2013-03-07 11:25:00,
2013-03-07 04:30:00,35.9,17.1,30.01,South,182,0.0,0.0,46,0.00,,,0.00,Wunderground v.1.15,2013-03-07 11:30:00,
2013-03-07 04:35:00,35.7,16.9,30.01,South,182,0.0,0.0,46,0.00,,,0.00,Wunderground v.1.15,2013-03-07 11:35:00,
2013-03-07 04:40:00,35.5,17.2,30.02,South,182,0.0,0.0,47,0.00,,,0.00,Wunderground v.1.15,2013-03-07 11:40:00,
2013-03-07 04:45:00,35.2,17.0,30.02,South,182,0.0,0.0,47,0.00,,,0.00,Wunderground v.1.15,2013-03-07 11:45:00,
2013-03-07 04:50:00,34.9,17.2,30.02,South,182,0.0,0.0,48,0.00,,,0.00,Wunderground v.1.15,2013-03-07 11:50:00,
2013-03-07 04:55:00,34.8,17.1,30.02,South,182,0.0,0.0,48,0.00,,,0.00,Wunderground v.1.15,2013-03-07 11:55:00,
2013-03-07 05:00:00,34.7,17.0,30.02,South,182,0.0,0.0,48,0.00,,,0.00,Wunderground v.1.15,2013-03-07 12:00:00,
2013-03-07 05:05:00,34.5,16.8,30.02,South,182,0.0,0.0,48,0.00,,,0.00,Wunderground v.1.15,2013-03-07 12:05:00,
2013-03-07 05:10:00,34.4,16.7,30.02,South,182,0.0,0.0,48,0.00,,,0.00,Wunderground v.1.15,2013-03-07 12:10:00,
2013-03-07 05:15:00,34.1,16.9,30.02,South,182,0.0,0.0,49,0.00,,,0.00,Wunderground v.1.15,2013-03-07 12:15:00,
2013-03-07 05:20:00,33.8,17.1,30.03,South,182,0.0,0.0,50,0.00,,,0.00,Wunderground v.1.15,2013-03-07 12:20:00,
2013-03-07 05:25:00,33.6,17.4,30.03,South,182,0.0,0.0,51,0.00,,,0.00,Wunderground v.1.15,2013-03-07 12:25:00,
2013-03-07 05:30:00,33.4,17.2,30.03,South,182,0.0,0.0,51,0.00,,,0.00,Wunderground v.1.15,2013-03-07 12:30:00,
2013-03-07 05:35:00,33.2,17.5,30.03,South,182,0.0,0.0,52,0.00,,,0.00,Wunderground v.1.15,2013-03-07 12:35:00,
2013-03-07 05:40:00,33.1,17.4,30.03,South,182,0.0,0.0,52,0.00,,,0.00,Wunderground v.1.15,2013-03-07 12:40:00,
2013-03-07 05:45:00,33.2,17.5,30.02,South,182,0.0,0.0,52,0.00,,,0.00,Wunderground v.1.15,2013-03-07 12:45:00,
2013-03-07 05:50:00,33.2,17.0,30.03,South,182,0.0,0.0,51,0.00,,,0.00,Wunderground v.1.15,2013-03-07 12:50:00,
2013-03-07 05:55:00,33.1,16.9,30.03,South,182,0.0,0.0,51,0.00,,,0.00,Wunderground v.1.15,2013-03-07 12:55:00,
2013-03-07 06:00:00,33.2,17.0,30.03,South,182,0.0,0.0,51,0.00,,,0.00,Wunderground v.1.15,2013-03-07 13:00:00,
2013-03-07 06:05:00,33.2,16.5,30.03,South,182,0.0,0.0,50,0.00,,,0.00,Wunderground v.1.15,2013-03-07 13:05:00,
2013-03-07 06:10:00,33.2,17.0,30.04,South,182,0.0,0.0,51,0.00,,,0.00,Wunderground v.1.15,2013-03-07 13:10:00,
2013-03-07 06:15:00,33.1,16.9,30.04,South,182,0.0,0.0,51,0.00,,,0.00,Wunderground v.1.15,2013-03-07 13:15:00,
2013-03-07 06:20:00,33.0,16.8,30.04,SSW,198,0.0,0.0,51,0.00,,,0.00,Wunderground v.1.15,2013-03-07 13:20:00,
2013-03-07 06:25:00,32.9,16.7,30.04,SSW,198,0.0,0.0,51,0.00,,,0.00,Wunderground v.1.15,2013-03-07 13:25:00,
2013-03-07 06:30:00,33.1,16.9,30.05,SSW,196,0.0,1.0,51,0.00,,,0.00,Wunderground v.1.15,2013-03-07 13:30:00,
2013-03-07 06:35:00,33.2,17.0,30.05,SSW,196,0.0,1.0,51,0.00,,,0.00,Wunderground v.1.15,2013-03-07 13:35:00,
2013-03-07 06:40:00,33.2,17.0,30.05,SSW,196,0.0,0.0,51,0.00,,,0.00,Wunderground v.1.15,2013-03-07 13:40:00,
2013-03-07 06:45:00,33.2,17.0,30.05,SSW,196,0.0,0.0,51,0.00,,,0.00,Wunderground v.1.15,2013-03-07 13:45:00,
2013-03-07 06:50:00,33.0,17.3,30.05,SSW,196,0.0,0.0,52,0.00,,,0.00,Wunderground v.1.15,2013-03-07 13:50:00,
2013-03-07 07:00:00,33.6,17.4,30.05,SSW,196,0.0,0.0,51,0.00,,,0.00,Wunderground v.1.15,2013-03-07 14:00:00,
2013-03-07 07:05:00,33.9,17.2,30.06,SSW,196,0.0,0.0,50,0.00,,,0.00,Wunderground v.1.15,2013-03-07 14:05:00,
2013-03-07 07:10:00,34.6,17.8,30.06,SSW,196,0.0,0.0,50,0.00,,,0.00,Wunderground v.1.15,2013-03-07 14:10:00,
2013-03-07 07:15:00,35.4,18.1,30.06,SSW,196,0.0,0.0,49,0.00,,,0.00,Wunderground v.1.15,2013-03-07 14:15:00,
2013-03-07 07:20:00,36.5,18.2,30.06,SSW,196,0.0,1.0,47,0.00,,,0.00,Wunderground v.1.15,2013-03-07 14:20:00,
2013-03-07 07:30:00,38.6,18.5,30.06,SSW,196,0.0,0.0,44,0.00,,,0.00,Wunderground v.1.15,2013-03-07 14:30:00,
2013-03-07 07:35:00,39.8,19.1,30.07,SSW,196,0.0,0.0,43,0.00,,,0.00,Wunderground v.1.15,2013-03-07 14:35:00,
2013-03-07 07:40:00,40.9,19.0,30.07,SSW,196,0.0,0.0,41,0.00,,,0.00,Wunderground v.1.15,2013-03-07 14:40:00,
2013-03-07 07:45:00,41.8,18.6,30.07,SSW,196,0.0,0.0,39,0.00,,,0.00,Wunderground v.1.15,2013-03-07 14:45:00,
2013-03-07 07:50:00,42.5,18.6,30.07,SSW,197,0.0,0.0,38,0.00,,,0.00,Wunderground v.1.15,2013-03-07 14:50:00,
2013-03-07 07:55:00,42.9,19.0,30.08,West,270,0.0,2.0,38,0.00,,,0.00,Wunderground v.1.15,2013-03-07 14:55:00,
2013-03-07 08:00:00,43.3,18.7,30.08,West,271,1.0,1.0,37,0.00,,,0.00,Wunderground v.1.15,2013-03-07 15:00:00,
2013-03-07 08:05:00,43.7,18.5,30.08,West,271,1.0,1.0,36,0.00,,,0.00,Wunderground v.1.15,2013-03-07 15:05:00,
2013-03-07 08:10:00,44.2,18.9,30.08,West,271,0.0,2.0,36,0.00,,,0.00,Wunderground v.1.15,2013-03-07 15:10:00,
2013-03-07 08:15:00,44.7,18.7,30.08,NW,322,1.0,2.0,35,0.00,,,0.00,Wunderground v.1.15,2013-03-07 15:15:00,
2013-03-07 08:20:00,45.0,19.0,30.08,NW,323,2.0,2.0,35,0.00,,,0.00,Wunderground v.1.15,2013-03-07 15:20:00,
2013-03-07 08:25:00,45.6,18.8,30.08,NW,323,1.0,2.0,34,0.00,,,0.00,Wunderground v.1.15,2013-03-07 15:25:00,
2013-03-07 08:30:00,46.3,18.7,30.08,NW,323,0.0,4.0,33,0.00,,,0.00,Wunderground v.1.15,2013-03-07 15:30:00,
2013-03-07 08:35:00,46.7,19.1,30.09,NW,323,1.0,4.0,33,0.00,,,0.00,Wunderground v.1.15,2013-03-07 15:35:00,
2013-03-07 08:40:00,47.6,19.2,30.09,NW,323,0.0,0.0,32,0.00,,,0.00,Wunderground v.1.15,2013-03-07 15:40:00,
2013-03-07 08:45:00,47.9,18.7,30.09,NW,323,0.0,0.0,31,0.00,,,0.00,Wunderground v.1.15,2013-03-07 15:45:00,
2013-03-07 08:50:00,48.4,19.1,30.08,NW,323,1.0,1.0,31,0.00,,,0.00,Wunderground v.1.15,2013-03-07 15:50:00,
2013-03-07 08:55:00,49.0,18.9,30.08,NW,323,1.0,1.0,30,0.00,,,0.00,Wunderground v.1.15,2013-03-07 15:55:00,
2013-03-07 09:00:00,49.4,19.2,30.08,NW,323,1.0,3.0,30,0.00,,,0.00,Wunderground v.1.15,2013-03-07 16:00:00,
2013-03-07 09:05:00,49.7,18.7,30.08,NW,323,1.0,3.0,29,0.00,,,0.00,Wunderground v.1.15,2013-03-07 16:05:00,
2013-03-07 09:15:00,51.1,19.1,30.08,NW,323,1.0,3.0,28,0.00,,,0.00,Wunderground v.1.15,2013-03-07 16:15:00,
2013-03-07 09:20:00,51.9,19.8,30.08,NW,323,0.0,0.0,28,0.00,,,0.00,Wunderground v.1.15,2013-03-07 16:20:00,
2013-03-07 09:30:00,53.3,19.2,30.08,NW,323,0.0,0.0,26,0.00,,,0.00,Wunderground v.1.15,2013-03-07 16:30:00,
2013-03-07 09:35:00,53.8,19.7,30.08,NW,323,1.0,1.0,26,0.00,,,0.00,Wunderground v.1.15,2013-03-07 16:35:00,
2013-03-07 09:40:00,54.3,18.2,30.07,NW,323,1.0,1.0,24,0.00,,,0.00,Wunderground v.1.15,2013-03-07 16:40:00,
2013-03-07 09:45:00,54.9,19.7,30.07,NW,323,1.0,1.0,25,0.00,,,0.00,Wunderground v.1.15,2013-03-07 16:45:00,
2013-03-07 09:50:00,55.6,19.3,30.07,NW,323,1.0,1.0,24,0.00,,,0.00,Wunderground v.1.15,2013-03-07 16:50:00,
2013-03-07 09:55:00,56.5,19.1,30.06,NW,323,1.0,2.0,23,0.00,,,0.00,Wunderground v.1.15,2013-03-07 16:55:00,
2013-03-07 10:00:00,56.9,19.4,30.06,NW,323,1.0,2.0,23,0.00,,,0.00,Wunderground v.1.15,2013-03-07 17:00:00,
2013-03-07 10:05:00,57.6,19.0,30.06,NW,323,1.0,2.0,22,0.00,,,0.00,Wunderground v.1.15,2013-03-07 17:05:00,
2013-03-07 10:10:00,58.7,18.8,30.06,NW,323,1.0,1.0,21,0.00,,,0.00,Wunderground v.1.15,2013-03-07 17:10:00,
2013-03-07 10:15:00,59.4,19.4,30.06,NW,323,1.0,1.0,21,0.00,,,0.00,Wunderground v.1.15,2013-03-07 17:15:00,
2013-03-07 10:20:00,59.9,19.8,30.06,NW,323,1.0,1.0,21,0.00,,,0.00,Wunderground v.1.15,2013-03-07 17:20:00,
2013-03-07 10:25:00,60.6,19.3,30.06,NW,323,0.0,1.0,20,0.00,,,0.00,Wunderground v.1.15,2013-03-07 17:25:00,
2013-03-07 10:30:00,60.7,19.3,30.06,NW,323,0.0,0.0,20,0.00,,,0.00,Wunderground v.1.15,2013-03-07 17:30:00,
2013-03-07 10:35:00,61.3,18.6,30.06,NW,323,1.0,1.0,19,0.00,,,0.00,Wunderground v.1.15,2013-03-07 17:35:00,
2013-03-07 10:40:00,61.8,19.0,30.06,NW,323,1.0,3.0,19,0.00,,,0.00,Wunderground v.1.15,2013-03-07 17:40:00,
2013-03-07 10:45:00,62.3,18.2,30.06,NW,323,1.0,3.0,18,0.00,,,0.00,Wunderground v.1.15,2013-03-07 17:45:00,
2013-03-07 10:50:00,62.8,18.6,30.05,NW,323,1.0,1.0,18,0.00,,,0.00,Wunderground v.1.15,2013-03-07 17:50:00,
2013-03-07 10:55:00,63.6,19.3,30.05,NW,313,1.0,1.0,18,0.00,,,0.00,Wunderground v.1.15,2013-03-07 17:55:00,
2013-03-07 11:00:00,63.6,19.3,30.05,NW,319,1.0,2.0,18,0.00,,,0.00,Wunderground v.1.15,2013-03-07 18:00:00,
2013-03-07 11:05:00,63.3,20.3,30.05,NW,321,2.0,2.0,19,0.00,,,0.00,Wunderground v.1.15,2013-03-07 18:05:00,
2013-03-07 11:10:00,63.6,19.3,30.05,NW,321,2.0,2.0,18,0.00,,,0.00,Wunderground v.1.15,2013-03-07 18:10:00,
2013-03-07 11:15:00,64.6,20.1,30.05,NW,319,1.0,2.0,18,0.00,,,0.00,Wunderground v.1.15,2013-03-07 18:15:00,
2013-03-07 11:20:00,65.3,20.7,30.05,NW,304,1.0,1.0,18,0.00,,,0.00,Wunderground v.1.15,2013-03-07 18:20:00,
2013-03-07 11:25:00,65.5,20.8,30.04,SE,137,1.0,1.0,18,0.00,,,0.00,Wunderground v.1.15,2013-03-07 18:25:00,
2013-03-07 11:30:00,65.2,19.2,30.04,NNE,31,1.0,1.0,17,0.00,,,0.00,Wunderground v.1.15,2013-03-07 18:30:00,
2013-03-07 11:35:00,65.6,19.6,30.04,ESE,120,1.0,3.0,17,0.00,,,0.00,Wunderground v.1.15,2013-03-07 18:35:00,
2013-03-07 11:40:00,65.6,19.6,30.04,NNE,12,1.0,1.0,17,0.00,,,0.00,Wunderground v.1.15,2013-03-07 18:40:00,
2013-03-07 11:45:00,65.9,19.8,30.03,SSW,207,1.0,1.0,17,0.00,,,0.00,Wunderground v.1.15,2013-03-07 18:45:00,
2013-03-07 11:50:00,66.2,20.0,30.03,SSW,207,1.0,1.0,17,0.00,,,0.00,Wunderground v.1.15,2013-03-07 18:50:00,
2013-03-07 11:55:00,67.0,20.7,30.03,WSW,248,1.0,1.0,17,0.00,,,0.00,Wunderground v.1.15,2013-03-07 18:55:00,
2013-03-07 12:00:00,67.6,19.8,30.03,SW,231,2.0,2.0,16,0.00,,,0.00,Wunderground v.1.15,2013-03-07 19:00:00,
2013-03-07 12:05:00,67.8,19.9,30.02,SW,232,1.0,3.0,16,0.00,,,0.00,Wunderground v.1.15,2013-03-07 19:05:00,
2013-03-07 12:10:00,67.6,19.8,30.02,SSW,200,1.0,4.0,16,0.00,,,0.00,Wunderground v.1.15,2013-03-07 19:10:00,
2013-03-07 12:15:00,67.3,20.9,30.02,WSW,241,3.0,4.0,17,0.00,,,0.00,Wunderground v.1.15,2013-03-07 19:15:00,
2013-03-07 12:20:00,67.3,19.5,30.01,SW,216,2.0,2.0,16,0.00,,,0.00,Wunderground v.1.15,2013-03-07 19:20:00,
2013-03-07 12:25:00,67.6,19.8,30.01,SW,220,1.0,3.0,16,0.00,,,0.00,Wunderground v.1.15,2013-03-07 19:25:00,
2013-03-07 12:35:00,67.6,19.8,30.00,South,172,3.0,3.0,16,0.00,,,0.00,Wunderground v.1.15,2013-03-07 19:35:00,
2013-03-07 12:40:00,67.9,20.0,30.00,WNW,298,2.0,5.0,16,0.00,,,0.00,Wunderground v.1.15,2013-03-07 19:40:00,
2013-03-07 12:50:00,68.0,18.6,29.99,WSW,242,3.0,3.0,15,0.00,,,0.00,Wunderground v.1.15,2013-03-07 19:50:00,
2013-03-07 13:00:00,68.2,18.7,29.98,SSW,198,3.0,4.0,15,0.00,,,0.00,Wunderground v.1.15,2013-03-07 20:00:00,
2013-03-07 13:05:00,68.4,17.3,29.98,SW,214,3.0,4.0,14,0.00,,,0.00,Wunderground v.1.15,2013-03-07 20:05:00,
2013-03-07 13:10:00,68.6,17.4,29.97,SSE,155,4.0,4.0,14,0.00,,,0.00,Wunderground v.1.15,2013-03-07 20:10:00,
2013-03-07 13:20:00,68.2,17.1,29.97,SW,225,4.0,5.0,14,0.00,,,0.00,Wunderground v.1.15,2013-03-07 20:20:00,
2013-03-07 13:25:00,68.3,18.8,29.96,WSW,254,3.0,5.0,15,0.00,,,0.00,Wunderground v.1.15,2013-03-07 20:25:00,
2013-03-07 13:30:00,68.8,17.6,29.96,WSW,244,3.0,3.0,14,0.00,,,0.00,Wunderground v.1.15,2013-03-07 20:30:00,
2013-03-07 13:35:00,69.1,17.8,29.95,WNW,288,2.0,5.0,14,0.00,,,0.00,Wunderground v.1.15,2013-03-07 20:35:00,
2013-03-07 13:40:00,69.9,18.5,29.95,SW,215,3.0,3.0,14,0.00,,,0.00,Wunderground v.1.15,2013-03-07 20:40:00,
2013-03-07 13:45:00,70.2,18.7,29.95,WSW,239,3.0,3.0,14,0.00,,,0.00,Wunderground v.1.15,2013-03-07 20:45:00,
2013-03-07 13:50:00,70.8,19.2,29.95,WNW,289,2.0,4.0,14,0.00,,,0.00,Wunderground v.1.15,2013-03-07 20:50:00,
2013-03-07 13:55:00,70.4,18.9,29.94,SSW,205,3.0,4.0,14,0.00,,,0.00,Wunderground v.1.15,2013-03-07 20:55:00,
2013-03-07 14:00:00,70.7,19.1,29.94,SW,215,3.0,3.0,14,0.00,,,0.00,Wunderground v.1.15,2013-03-07 21:00:00,
2013-03-07 14:05:00,70.6,19.0,29.94,WNW,296,3.0,3.0,14,0.00,,,0.00,Wunderground v.1.15,2013-03-07 21:05:00,
2013-03-07 14:10:00,70.8,19.2,29.93,South,188,3.0,3.0,14,0.00,,,0.00,Wunderground v.1.15,2013-03-07 21:10:00,
2013-03-07 14:15:00,70.4,18.9,29.93,WSW,250,3.0,3.0,14,0.00,,,0.00,Wunderground v.1.15,2013-03-07 21:15:00,
2013-03-07 14:20:00,70.5,19.0,29.93,SW,220,3.0,3.0,14,0.00,,,0.00,Wunderground v.1.15,2013-03-07 21:20:00,
2013-03-07 14:25:00,70.8,19.2,29.93,South,180,3.0,10.0,14,0.00,,,0.00,Wunderground v.1.15,2013-03-07 21:25:00,
2013-03-07 14:30:00,70.5,19.0,29.92,SSW,210,2.0,8.0,14,0.00,,,0.00,Wunderground v.1.15,2013-03-07 21:30:00,
2013-03-07 14:35:00,70.9,19.3,29.92,SW,216,4.0,8.0,14,0.00,,,0.00,Wunderground v.1.15,2013-03-07 21:35:00,
2013-03-07 14:40:00,70.7,17.4,29.92,South,191,5.0,5.0,13,0.00,,,0.00,Wunderground v.1.15,2013-03-07 21:40:00,
2013-03-07 14:45:00,70.9,17.5,29.92,SW,215,5.0,5.0,13,0.00,,,0.00,Wunderground v.1.15,2013-03-07 21:45:00,
2013-03-07 14:50:00,71.3,17.9,29.92,SSW,213,4.0,6.0,13,0.00,,,0.00,Wunderground v.1.15,2013-03-07 21:50:00,
2013-03-07 14:55:00,71.6,18.1,29.92,SW,231,4.0,6.0,13,0.00,,,0.00,Wunderground v.1.15,2013-03-07 21:55:00,
2013-03-07 15:00:00,71.3,19.6,29.92,SSW,200,4.0,4.0,14,0.00,,,0.00,Wunderground v.1.15,2013-03-07 22:00:00,
2013-03-07 15:05:00,71.2,19.5,29.91,SSW,202,3.0,4.0,14,0.00,,,0.00,Wunderground v.1.15,2013-03-07 22:05:00,
2013-03-07 15:10:00,71.2,17.8,29.91,SW,235,2.0,8.0,13,0.00,,,0.00,Wunderground v.1.15,2013-03-07 22:10:00,
2013-03-07 15:15:00,71.5,19.8,29.91,SSE,160,3.0,8.0,14,0.00,,,0.00,Wunderground v.1.15,2013-03-07 22:15:00,
2013-03-07 15:20:00,71.3,19.6,29.91,WSW,245,4.0,4.0,14,0.00,,,0.00,Wunderground v.1.15,2013-03-07 22:20:00,
2013-03-07 15:25:00,71.0,19.4,29.91,SSW,200,3.0,4.0,14,0.00,,,0.00,Wunderground v.1.15,2013-03-07 22:25:00,
2013-03-07 15:30:00,71.1,19.4,29.91,SSW,207,2.0,10.0,14,0.00,,,0.00,Wunderground v.1.15,2013-03-07 22:30:00,
2013-03-07 15:35:00,71.1,19.4,29.90,SW,221,3.0,10.0,14,0.00,,,0.00,Wunderground v.1.15,2013-03-07 22:35:00,
2013-03-07 15:40:00,71.0,19.4,29.90,South,182,4.0,4.0,14,0.00,,,0.00,Wunderground v.1.15,2013-03-07 22:40:00,
2013-03-07 15:45:00,71.1,19.4,29.90,SW,221,4.0,4.0,14,0.00,,,0.00,Wunderground v.1.15,2013-03-07 22:45:00,
2013-03-07 15:50:00,71.3,19.6,29.89,SSE,153,3.0,3.0,14,0.00,,,0.00,Wunderground v.1.15,2013-03-07 22:50:00,
2013-03-07 15:55:00,71.7,18.2,29.90,SW,214,2.0,3.0,13,0.00,,,0.00,Wunderground v.1.15,2013-03-07 22:55:00,
2013-03-07 16:05:00,71.9,20.1,29.89,SSW,194,3.0,5.0,14,0.00,,,0.00,Wunderground v.1.15,2013-03-07 23:05:00,
2013-03-07 16:10:00,72.0,18.4,29.89,SW,219,2.0,7.0,13,0.00,,,0.00,Wunderground v.1.15,2013-03-07 23:10:00,
2013-03-07 16:15:00,71.5,19.8,29.88,WSW,240,3.0,7.0,14,0.00,,,0.00,Wunderground v.1.15,2013-03-07 23:15:00,
2013-03-07 16:20:00,71.3,19.6,29.88,WSW,244,3.0,3.0,14,0.00,,,0.00,Wunderground v.1.15,2013-03-07 23:20:00,
2013-03-07 16:30:00,71.1,19.4,29.88,WSW,252,3.0,3.0,14,0.00,,,0.00,Wunderground v.1.15,2013-03-07 23:30:00,
2013-03-07 16:35:00,71.2,19.5,29.88,SSW,197,2.0,6.0,14,0.00,,,0.00,Wunderground v.1.15,2013-03-07 23:35:00,
2013-03-07 16:40:00,70.8,19.2,29.87,South,189,2.0,2.0,14,0.00,,,0.00,Wunderground v.1.15,2013-03-07 23:40:00,
2013-03-07 16:45:00,70.8,19.2,29.87,WSW,242,2.0,2.0,14,0.00,,,0.00,Wunderground v.1.15,2013-03-07 23:45:00,
2013-03-07 16:50:00,70.5,19.0,29.87,SSE,167,1.0,3.0,14,0.00,,,0.00,Wunderground v.1.15,2013-03-07 23:50:00,
2013-03-07 16:55:00,70.5,19.0,29.87,SSW,194,1.0,3.0,14,0.00,,,0.00,Wunderground v.1.15,2013-03-07 23:55:00,
2013-03-07 17:00:00,70.5,17.2,29.87,South,186,1.0,3.0,13,0.00,,,0.00,Wunderground v.1.15,2013-03-08 00:00:00,
2013-03-07 17:05:00,70.1,16.9,29.87,SSW,196,1.0,3.0,13,0.00,,,0.00,Wunderground v.1.15,2013-03-08 00:05:00,
2013-03-07 17:10:00,69.6,16.5,29.87,South,182,1.0,1.0,13,0.00,,,0.00,Wunderground v.1.15,2013-03-08 00:10:00,
2013-03-07 17:15:00,69.3,16.3,29.87,South,186,1.0,2.0,13,0.00,,,0.00,Wunderground v.1.15,2013-03-08 00:15:00,
2013-03-07 17:25:00,68.9,17.7,29.86,SW,224,3.0,4.0,14,0.00,,,0.00,Wunderground v.1.15,2013-03-08 00:25:00,
2013-03-07 17:30:00,68.8,17.6,29.86,SSW,207,3.0,3.0,14,0.00,,,0.00,Wunderground v.1.15,2013-03-08 00:30:00,
2013-03-07 17:35:00,68.6,17.4,29.86,SSW,202,2.0,3.0,14,0.00,,,0.00,Wunderground v.1.15,2013-03-08 00:35:00,
2013-03-07 17:40:00,68.4,17.3,29.86,South,190,2.0,4.0,14,0.00,,,0.00,Wunderground v.1.15,2013-03-08 00:40:00,
2013-03-07 17:45:00,68.1,17.0,29.86,SSW,210,1.0,4.0,14,0.00,,,0.00,Wunderground v.1.15,2013-03-08 00:45:00,
2013-03-07 17:55:00,67.8,16.8,29.86,SSW,209,1.0,1.0,14,0.00,,,0.00,Wunderground v.1.15,2013-03-08 00:55:00,
2013-03-07 18:00:00,67.6,16.6,29.86,SW,215,1.0,1.0,14,0.00,,,0.00,Wunderground v.1.15,2013-03-08 01:00:00,
2013-03-07 18:05:00,67.3,16.4,29.86,SW,215,1.0,1.0,14,0.00,,,0.00,Wunderground v.1.15,2013-03-08 01:05:00,
2013-03-07 18:10:00,67.0,16.2,29.86,SW,214,1.0,1.0,14,0.00,,,0.00,Wunderground v.1.15,2013-03-08 01:10:00,
2013-03-07 18:15:00,66.7,15.9,29.86,SW,214,0.0,1.0,14,0.00,,,0.00,Wunderground v.1.15,2013-03-08 01:15:00,
2013-03-07 18:25:00,65.9,15.3,29.86,SW,214,0.0,0.0,14,0.00,,,0.00,Wunderground v.1.15,2013-03-08 01:25:00,
2013-03-07 18:35:00,65.1,16.2,29.87,SSW,212,0.0,0.0,15,0.00,,,0.00,Wunderground v.1.15,2013-03-08 01:35:00,
2013-03-07 18:40:00,64.9,16.1,29.87,SSW,212,0.0,0.0,15,0.00,,,0.00,Wunderground v.1.15,2013-03-08 01:40:00,
2013-03-07 18:45:00,64.6,15.8,29.87,SSW,212,0.0,0.0,15,0.00,,,0.00,Wunderground v.1.15,2013-03-08 01:45:00,
2013-03-07 18:50:00,64.5,15.8,29.87,SE,128,0.0,0.0,15,0.00,,,0.00,Wunderground v.1.15,2013-03-08 01:50:00,
2013-03-07 18:55:00,64.4,15.7,29.87,SSE,159,0.0,0.0,15,0.00,,,0.00,Wunderground v.1.15,2013-03-08 01:55:00,
2013-03-07 19:00:00,64.4,15.7,29.87,South,186,0.0,1.0,15,0.00,,,0.00,Wunderground v.1.15,2013-03-08 02:00:00,
2013-03-07 19:05:00,64.2,15.5,29.88,SSW,196,2.0,2.0,15,0.00,,,0.00,Wunderground v.1.15,2013-03-08 02:05:00,
2013-03-07 19:10:00,63.9,15.3,29.88,SSE,150,2.0,2.0,15,0.00,,,0.00,Wunderground v.1.15,2013-03-08 02:10:00,
2013-03-07 19:15:00,63.7,16.6,29.87,South,173,1.0,2.0,16,0.00,,,0.00,Wunderground v.1.15,2013-03-08 02:15:00,
2013-03-07 19:25:00,63.2,16.2,29.88,SSW,210,2.0,6.0,16,0.00,,,0.00,Wunderground v.1.15,2013-03-08 02:25:00,
2013-03-07 19:30:00,63.0,16.0,29.87,SSE,156,2.0,2.0,16,0.00,,,0.00,Wunderground v.1.15,2013-03-08 02:30:00,
2013-03-07 19:35:00,62.8,15.9,29.88,SSE,165,2.0,3.0,16,0.00,,,0.00,Wunderground v.1.15,2013-03-08 02:35:00,
2013-03-07 19:40:00,62.7,15.8,29.87,SSE,157,2.0,3.0,16,0.00,,,0.00,Wunderground v.1.15,2013-03-08 02:40:00,
2013-03-07 19:45:00,62.7,15.8,29.88,South,173,2.0,5.0,16,0.00,,,0.00,Wunderground v.1.15,2013-03-08 02:45:00,
2013-03-07 19:50:00,63.2,16.2,29.88,ESE,104,2.0,2.0,16,0.00,,,0.00,Wunderground v.1.15,2013-03-08 02:50:00,
2013-03-07 19:55:00,63.4,16.4,29.88,SSE,159,3.0,4.0,16,0.00,,,0.00,Wunderground v.1.15,2013-03-08 02:55:00,
2013-03-07 20:00:00,63.4,16.4,29.88,South,170,3.0,3.0,16,0.00,,,0.00,Wunderground v.1.15,2013-03-08 03:00:00,
2013-03-07 20:05:00,63.1,16.1,29.88,SE,128,2.0,4.0,16,0.00,,,0.00,Wunderground v.1.15,2013-03-08 03:05:00,
2013-03-07 20:10:00,62.8,15.9,29.88,SSE,154,2.0,3.0,16,0.00,,,0.00,Wunderground v.1.15,2013-03-08 03:10:00,
2013-03-07 20:15:00,62.5,15.6,29.88,ESE,119,3.0,4.0,16,0.00,,,0.00,Wunderground v.1.15,2013-03-08 03:15:00,
2013-03-07 20:20:00,62.2,15.4,29.88,South,169,3.0,3.0,16,0.00,,,0.00,Wunderground v.1.15,2013-03-08 03:20:00,
2013-03-07 20:25:00,62.0,16.6,29.88,South,180,2.0,3.0,17,0.00,,,0.00,Wunderground v.1.15,2013-03-08 03:25:00,
2013-03-07 20:30:00,62.0,16.6,29.88,SSE,148,2.0,2.0,17,0.00,,,0.00,Wunderground v.1.15,2013-03-08 03:30:00,
2013-03-07 20:35:00,61.8,16.5,29.88,SSE,157,2.0,2.0,17,0.00,,,0.00,Wunderground v.1.15,2013-03-08 03:35:00,
2013-03-07 20:40:00,61.6,16.3,29.89,SSE,150,2.0,2.0,17,0.00,,,0.00,Wunderground v.1.15,2013-03-08 03:40:00,
2013-03-07 20:45:00,61.3,16.1,29.89,SSE,166,2.0,2.0,17,0.00,,,0.00,Wunderground v.1.15,2013-03-08 03:45:00,
2013-03-07 20:55:00,60.8,17.0,29.89,South,187,1.0,1.0,18,0.00,,,0.00,Wunderground v.1.15,2013-03-08 03:55:00,
2013-03-07 21:00:00,60.5,16.7,29.89,SSW,201,1.0,6.0,18,0.00,,,0.00,Wunderground v.1.15,2013-03-08 04:00:00,
2013-03-07 21:05:00,60.3,16.6,29.89,SE,142,2.0,6.0,18,0.00,,,0.00,Wunderground v.1.15,2013-03-08 04:05:00,
2013-03-07 21:10:00,60.1,16.4,29.89,SSE,159,2.0,2.0,18,0.00,,,0.00,Wunderground v.1.15,2013-03-08 04:10:00,
2013-03-07 21:15:00,59.9,17.5,29.89,SSE,159,2.0,7.0,19,0.00,,,0.00,Wunderground v.1.15,2013-03-08 04:15:00,
2013-03-07 21:20:00,59.9,17.5,29.89,SSW,209,4.0,4.0,19,0.00,,,0.00,Wunderground v.1.15,2013-03-08 04:20:00,
2013-03-07 21:25:00,59.7,17.3,29.89,SSE,161,3.0,4.0,19,0.00,,,0.00,Wunderground v.1.15,2013-03-08 04:25:00,
2013-03-07 21:30:00,59.3,18.2,29.89,SSW,200,2.0,2.0,20,0.00,,,0.00,Wunderground v.1.15,2013-03-08 04:30:00,
2013-03-07 21:35:00,59.0,17.9,29.89,SSW,213,2.0,4.0,20,0.00,,,0.00,Wunderground v.1.15,2013-03-08 04:35:00,
2013-03-07 21:40:00,58.9,17.8,29.90,SW,217,3.0,3.0,20,0.00,,,0.00,Wunderground v.1.15,2013-03-08 04:40:00,
2013-03-07 21:45:00,58.6,17.6,29.91,SW,236,3.0,6.0,20,0.00,,,0.00,Wunderground v.1.15,2013-03-08 04:45:00,
2013-03-07 21:50:00,58.2,17.3,29.91,SSW,213,3.0,3.0,20,0.00,,,0.00,Wunderground v.1.15,2013-03-08 04:50:00,
2013-03-07 21:55:00,57.8,18.1,29.91,SE,146,2.0,3.0,21,0.00,,,0.00,Wunderground v.1.15,2013-03-08 04:55:00,
2013-03-07 22:00:00,57.7,18.0,29.91,SSW,194,3.0,5.0,21,0.00,,,0.00,Wunderground v.1.15,2013-03-08 05:00:00,
2013-03-07 22:05:00,57.8,18.1,29.91,SSE,147,4.0,5.0,21,0.00,,,0.00,Wunderground v.1.15,2013-03-08 05:05:00,
2013-03-07 22:10:00,57.7,18.0,29.91,SSW,211,3.0,3.0,21,0.00,,,0.00,Wunderground v.1.15,2013-03-08 05:10:00,
2013-03-07 22:15:00,57.5,17.8,29.91,SSW,200,3.0,3.0,21,0.00,,,0.00,Wunderground v.1.15,2013-03-08 05:15:00,
2013-03-07 22:20:00,57.1,17.5,29.91,South,175,3.0,4.0,21,0.00,,,0.00,Wunderground v.1.15,2013-03-08 05:20:00,
2013-03-07 22:25:00,56.7,17.1,29.92,South,171,2.0,4.0,21,0.00,,,0.00,Wunderground v.1.15,2013-03-08 05:25:00,
2013-03-07 22:30:00,56.3,17.9,29.92,South,176,1.0,1.0,22,0.00,,,0.00,Wunderground v.1.15,2013-03-08 05:30:00,
2013-03-07 22:35:00,55.9,17.6,29.92,South,172,1.0,2.0,22,0.00,,,0.00,Wunderground v.1.15,2013-03-08 05:35:00,
2013-03-07 22:40:00,55.5,17.2,29.92,SSW,195,1.0,1.0,22,0.00,,,0.00,Wunderground v.1.15,2013-03-08 05:40:00,
2013-03-07 22:45:00,55.1,16.9,29.93,ESE,114,1.0,1.0,22,0.00,,,0.00,Wunderground v.1.15,2013-03-08 05:45:00,
2013-03-07 22:50:00,54.6,17.5,29.93,SSE,162,2.0,2.0,23,0.00,,,0.00,Wunderground v.1.15,2013-03-08 05:50:00,
2013-03-07 22:55:00,54.2,17.1,29.93,South,174,1.0,2.0,23,0.00,,,0.00,Wunderground v.1.15,2013-03-08 05:55:00,
2013-03-07 23:05:00,53.6,16.6,29.94,SSW,200,1.0,3.0,23,0.00,,,0.00,Wunderground v.1.15,2013-03-08 06:05:00,
2013-03-07 23:10:00,53.4,16.5,29.94,South,170,1.0,1.0,23,0.00,,,0.00,Wunderground v.1.15,2013-03-08 06:10:00,
2013-03-07 23:15:00,53.1,17.2,29.94,South,170,1.0,1.0,24,0.00,,,0.00,Wunderground v.1.15,2013-03-08 06:15:00,
2013-03-07 23:20:00,52.7,16.9,29.94,SSE,163,0.0,0.0,24,0.00,,,0.00,Wunderground v.1.15,2013-03-08 06:20:00,
2013-03-07 23:25:00,52.6,16.8,29.95,SSE,163,0.0,0.0,24,0.00,,,0.00,Wunderground v.1.15,2013-03-08 06:25:00,
2013-03-07 23:30:00,52.5,16.7,29.95,SSE,163,0.0,5.0,24,0.00,,,0.00,Wunderground v.1.15,2013-03-08 06:30:00,
2013-03-07 23:35:00,52.2,16.4,29.95,SSE,163,0.0,5.0,24,0.00,,,0.00,Wunderground v.1.15,2013-03-08 06:35:00,
2013-03-07 23:40:00,52.0,16.3,29.96,SSE,159,0.0,0.0,24,0.00,,,0.00,Wunderground v.1.15,2013-03-08 06:40:00,
2013-03-07 23:45:00,52.0,16.3,29.96,SSE,157,0.0,0.0,24,0.00,,,0.00,Wunderground v.1.15,2013-03-08 06:45:00,
2013-03-07 23:50:00,52.1,16.4,29.96,SSE,159,0.0,0.0,24,0.00,,,0.00,Wunderground v.1.15,2013-03-08 06:50:00,
2013-03-07 23:55:00,52.1,16.4,29.96,SE,134,0.0,0.0,24,0.00,,,0.00,Wunderground v.1.15,2013-03-08 06:55:00,